WJA2541 CYVR-CYEG

Flight info

Callsign WJA2541
Flight time 1h 14m
Altitude 31000
Route VIDRI Q949 ELLKS ELLKS3
Aircraft A20N/M-SDE2E3FGHIRWXY/LB1

Departure

Time 2026-05-03 23:58
Airport Vancouver International Airport (CYVR)

Arrival

Time 2026-05-04 01:12
Airport Edmonton International Airport (CYEG)
Time Latitude Longitude Altitude Speed Heading
2026-05-03 23:30 49.19638 -123.18579 17 ft 0 kts 198°
2026-05-03 23:46 49.19640 -123.18578 17 ft 1 kts 198°
2026-05-03 23:46 49.19647 -123.18574 18 ft 1 kts 198°
2026-05-03 23:46 49.19655 -123.18570 17 ft 1 kts 198°
2026-05-03 23:46 49.19662 -123.18566 19 ft 1 kts 198°
2026-05-03 23:47 49.19669 -123.18562 17 ft 1 kts 198°
2026-05-03 23:47 49.19677 -123.18559 20 ft 1 kts 198°
2026-05-03 23:47 49.19684 -123.18555 18 ft 1 kts 203°
2026-05-03 23:47 49.19691 -123.18550 19 ft 1 kts 218°
2026-05-03 23:48 49.19697 -123.18542 21 ft 1 kts 232°
2026-05-03 23:48 49.19702 -123.18533 18 ft 1 kts 248°
2026-05-03 23:48 49.19704 -123.18522 20 ft 1 kts 262°
2026-05-03 23:48 49.19705 -123.18510 18 ft 1 kts 269°
2026-05-03 23:49 49.19705 -123.18492 18 ft 2 kts 278°
2026-05-03 23:49 49.19704 -123.18485 19 ft 0 kts 281°
2026-05-03 23:51 49.19707 -123.18509 18 ft 6 kts 281°
2026-05-03 23:52 49.19717 -123.18614 19 ft 13 kts 265°
2026-05-03 23:52 49.19629 -123.18691 18 ft 19 kts 189°
2026-05-03 23:52 49.19484 -123.18730 17 ft 20 kts 191°
2026-05-03 23:52 49.19336 -123.18701 17 ft 25 kts 189°
2026-05-03 23:53 49.19155 -123.18684 16 ft 28 kts 143°
2026-05-03 23:53 49.18985 -123.18474 18 ft 34 kts 136°
2026-05-03 23:53 49.18918 -123.18127 16 ft 36 kts 101°
2026-05-03 23:53 49.18869 -123.17725 16 ft 38 kts 99°
2026-05-03 23:54 49.18823 -123.17299 16 ft 39 kts 98°
2026-05-03 23:54 49.18782 -123.16934 16 ft 31 kts 99°
2026-05-03 23:54 49.18744 -123.16582 16 ft 36 kts 102°
2026-05-03 23:54 49.18677 -123.16250 16 ft 25 kts 140°
2026-05-03 23:55 49.18614 -123.16051 16 ft 22 kts 140°
2026-05-03 23:55 49.18589 -123.16036 16 ft 0 kts 169°
2026-05-03 23:56 49.18583 -123.16034 16 ft 3 kts 169°
2026-05-03 23:56 49.18504 -123.16062 17 ft 19 kts 203°
2026-05-03 23:57 49.18491 -123.16222 18 ft 20 kts 280°
2026-05-03 23:57 49.18542 -123.16672 13 ft 75 kts 281°
2026-05-03 23:57 49.18664 -123.17735 20 ft 126 kts 280°
2026-05-03 23:57 49.18824 -123.19224 299 ft 139 kts 278°
2026-05-03 23:58 49.18873 -123.20612 941 ft 127 kts 271°
2026-05-03 23:58 49.18852 -123.21949 1430 ft 129 kts 264°
2026-05-03 23:58 49.18654 -123.23302 1958 ft 130 kts 254°
2026-05-03 23:58 49.18206 -123.24529 2492 ft 138 kts 235°
2026-05-03 23:59 49.17711 -123.25812 2996 ft 149 kts 254°
2026-05-03 23:59 49.17778 -123.27442 3383 ft 170 kts 297°
2026-05-03 23:59 49.18582 -123.29023 3758 ft 208 kts 314°
2026-05-03 23:59 49.19645 -123.30732 3894 ft 241 kts 311°
2026-05-04 00:00 49.20739 -123.32844 4474 ft 263 kts 306°
2026-05-04 00:00 49.21972 -123.34948 5339 ft 270 kts 325°
2026-05-04 00:00 49.23697 -123.36036 6315 ft 272 kts 353°
2026-05-04 00:00 49.25570 -123.35788 7241 ft 273 kts 20°
2026-05-04 00:01 49.27170 -123.34245 8175 ft 275 kts 46°
2026-05-04 00:01 49.28369 -123.31983 9126 ft 279 kts 55°
2026-05-04 00:01 49.29473 -123.29522 10101 ft 281 kts 55°
2026-05-04 00:01 49.30633 -123.27007 10657 ft 300 kts 53°
2026-05-04 00:02 49.31944 -123.24359 10981 ft 324 kts 52°
2026-05-04 00:02 49.33389 -123.21591 11533 ft 337 kts 50°
2026-05-04 00:02 49.34884 -123.18796 12361 ft 341 kts 50°
2026-05-04 00:02 49.36403 -123.15968 13164 ft 346 kts 50°
2026-05-04 00:03 49.37947 -123.13095 13945 ft 352 kts 50°
2026-05-04 00:03 49.39512 -123.10179 14718 ft 354 kts 50°
2026-05-04 00:03 49.41082 -123.07245 15470 ft 359 kts 49°
2026-05-04 00:03 49.42675 -123.04263 16224 ft 362 kts 49°
2026-05-04 00:04 49.44274 -123.01262 16930 ft 366 kts 49°
2026-05-04 00:04 49.45894 -122.98219 17688 ft 369 kts 49°
2026-05-04 00:04 49.47531 -122.95140 18373 ft 373 kts 49°
2026-05-04 00:04 49.49178 -122.92039 19008 ft 376 kts 49°
2026-05-04 00:05 49.50848 -122.88891 19606 ft 381 kts 49°
2026-05-04 00:05 49.52531 -122.85718 20253 ft 385 kts 49°
2026-05-04 00:05 49.54230 -122.82509 20864 ft 388 kts 49°
2026-05-04 00:05 49.55943 -122.79268 21470 ft 392 kts 49°
2026-05-04 00:06 49.57673 -122.75992 22078 ft 396 kts 49°
2026-05-04 00:06 49.59417 -122.72684 22675 ft 400 kts 48°
2026-05-04 00:06 49.61176 -122.69338 23265 ft 404 kts 48°
2026-05-04 00:06 49.62953 -122.65960 23807 ft 407 kts 48°
2026-05-04 00:07 49.64739 -122.62560 24345 ft 408 kts 48°
2026-05-04 00:07 49.66532 -122.59142 24877 ft 411 kts 48°
2026-05-04 00:07 49.68334 -122.55701 25358 ft 414 kts 48°
2026-05-04 00:07 49.70126 -122.52276 25867 ft 415 kts 48°
2026-05-04 00:08 49.71948 -122.48789 26353 ft 417 kts 48°
2026-05-04 00:08 49.73775 -122.45288 26815 ft 420 kts 48°
2026-05-04 00:08 49.75612 -122.41763 27255 ft 422 kts 48°
2026-05-04 00:08 49.77464 -122.38205 27679 ft 425 kts 48°
2026-05-04 00:09 49.79315 -122.34643 28125 ft 426 kts 48°
2026-05-04 00:09 49.81170 -122.31065 28597 ft 427 kts 48°
2026-05-04 00:09 49.83044 -122.27454 28924 ft 431 kts 48°
2026-05-04 00:09 49.84928 -122.23817 29372 ft 432 kts 48°
2026-05-04 00:10 49.86787 -122.20219 29716 ft 435 kts 48°
2026-05-04 00:10 49.88681 -122.16548 30101 ft 437 kts 48°
2026-05-04 00:10 49.90584 -122.12854 30446 ft 438 kts 48°
2026-05-04 00:10 49.92478 -122.09170 30633 ft 435 kts 48°
2026-05-04 00:11 49.96265 -122.01798 30832 ft 437 kts 48°
2026-05-04 00:11 50.00039 -121.94425 30925 ft 435 kts 48°
2026-05-04 00:12 50.03806 -121.87048 30918 ft 434 kts 48°
2026-05-04 00:12 50.07559 -121.79673 30923 ft 433 kts 48°
2026-05-04 00:13 50.11316 -121.72280 30907 ft 435 kts 48°
2026-05-04 00:13 50.15072 -121.64862 30906 ft 435 kts 48°
2026-05-04 00:14 50.18817 -121.57446 30906 ft 435 kts 48°
2026-05-04 00:14 50.22559 -121.50016 30906 ft 436 kts 48°
2026-05-04 00:15 50.26314 -121.42588 30910 ft 435 kts 48°
2026-05-04 00:15 50.30059 -121.35207 30913 ft 435 kts 47°
2026-05-04 00:16 50.33819 -121.27783 30919 ft 435 kts 48°
2026-05-04 00:16 50.37550 -121.20388 30900 ft 435 kts 48°
2026-05-04 00:17 50.41300 -121.12925 30907 ft 435 kts 48°
2026-05-04 00:17 50.45039 -121.05463 30925 ft 435 kts 48°
2026-05-04 00:18 50.48784 -120.97968 30928 ft 436 kts 48°
2026-05-04 00:18 50.52526 -120.90458 30926 ft 436 kts 48°
2026-05-04 00:19 50.56254 -120.82955 30929 ft 436 kts 48°
2026-05-04 00:19 50.59962 -120.75470 30914 ft 436 kts 48°
2026-05-04 00:20 50.63690 -120.67919 30910 ft 436 kts 48°
2026-05-04 00:20 50.67411 -120.60364 30911 ft 436 kts 48°
2026-05-04 00:21 50.71129 -120.52794 30908 ft 437 kts 48°
2026-05-04 00:21 50.74850 -120.45194 30909 ft 437 kts 48°
2026-05-04 00:22 50.78540 -120.37635 30908 ft 437 kts 48°
2026-05-04 00:22 50.82245 -120.30024 30908 ft 437 kts 48°
2026-05-04 00:23 50.85956 -120.22378 30907 ft 437 kts 48°
2026-05-04 00:23 50.89663 -120.14719 30914 ft 438 kts 48°
2026-05-04 00:24 50.93363 -120.07050 30926 ft 438 kts 48°
2026-05-04 00:24 50.97042 -119.99401 30930 ft 438 kts 48°
2026-05-04 00:25 51.00731 -119.91708 30928 ft 439 kts 48°
2026-05-04 00:25 51.04431 -119.83972 30943 ft 440 kts 48°
2026-05-04 00:26 51.08130 -119.76216 30943 ft 439 kts 48°
2026-05-04 00:26 51.11824 -119.68449 30945 ft 442 kts 48°
2026-05-04 00:27 51.15534 -119.60621 30947 ft 441 kts 48°
2026-05-04 00:27 51.19203 -119.52855 30952 ft 442 kts 48°
2026-05-04 00:28 51.22895 -119.45021 30954 ft 442 kts 48°
2026-05-04 00:28 51.26583 -119.37165 30956 ft 442 kts 48°
2026-05-04 00:29 51.30272 -119.29291 30956 ft 443 kts 48°
2026-05-04 00:29 51.33337 -119.22730 30967 ft 444 kts 48°
2026-05-04 00:30 51.37027 -119.14802 30961 ft 444 kts 48°
2026-05-04 00:30 51.40716 -119.06855 30952 ft 444 kts 48°
2026-05-04 00:31 51.44394 -118.98910 30960 ft 444 kts 48°
2026-05-04 00:31 51.48067 -118.90952 30955 ft 443 kts 48°
2026-05-04 00:32 51.51730 -118.82989 30951 ft 443 kts 48°
2026-05-04 00:32 51.55403 -118.74978 30955 ft 445 kts 48°
2026-05-04 00:33 51.60901 -118.62942 30952 ft 445 kts 48°
2026-05-04 00:34 51.64564 -118.54895 30952 ft 446 kts 48°
2026-05-04 00:34 51.68208 -118.46863 30960 ft 447 kts 48°
2026-05-04 00:35 51.71875 -118.38750 30941 ft 446 kts 48°
2026-05-04 00:35 51.75521 -118.30660 30951 ft 447 kts 48°
2026-05-04 00:36 51.79171 -118.22539 30965 ft 447 kts 48°
2026-05-04 00:36 51.82812 -118.14403 30944 ft 443 kts 48°
2026-05-04 00:37 51.86428 -118.06313 30956 ft 444 kts 48°
2026-05-04 00:37 51.90062 -117.98154 30965 ft 449 kts 48°
2026-05-04 00:38 51.93698 -117.89955 30973 ft 448 kts 48°
2026-05-04 00:38 51.97332 -117.81737 30970 ft 445 kts 48°
2026-05-04 00:39 52.00934 -117.73579 30989 ft 450 kts 48°
2026-05-04 00:39 52.04561 -117.65330 30982 ft 448 kts 49°
2026-05-04 00:40 52.08139 -117.56980 31003 ft 450 kts 48°
2026-05-04 00:40 52.11794 -117.48717 31006 ft 449 kts 48°
2026-05-04 00:41 52.15425 -117.40414 31018 ft 452 kts 48°
2026-05-04 00:41 52.19031 -117.32096 31019 ft 451 kts 48°
2026-05-04 00:42 52.22653 -117.23711 31031 ft 452 kts 48°
2026-05-04 00:42 52.26276 -117.15299 31030 ft 453 kts 48°
2026-05-04 00:43 52.29907 -117.06840 31037 ft 453 kts 48°
2026-05-04 00:43 52.33521 -116.98385 31035 ft 454 kts 48°
2026-05-04 00:44 52.37113 -116.89958 31035 ft 454 kts 48°
2026-05-04 00:44 52.40721 -116.81465 31024 ft 454 kts 48°
2026-05-04 00:45 52.44328 -116.72951 31032 ft 454 kts 48°
2026-05-04 00:45 52.47927 -116.64429 31022 ft 455 kts 48°
2026-05-04 00:46 52.51523 -116.55883 31021 ft 454 kts 48°
2026-05-04 00:46 52.55102 -116.47344 31021 ft 456 kts 48°
2026-05-04 00:47 52.58694 -116.38747 31009 ft 454 kts 48°
2026-05-04 00:47 52.62265 -116.30173 31002 ft 454 kts 48°
2026-05-04 00:48 52.65809 -116.21639 30991 ft 454 kts 48°
2026-05-04 00:48 52.67596 -116.17326 30807 ft 455 kts 48°
2026-05-04 00:48 52.69376 -116.13014 30560 ft 454 kts 48°
2026-05-04 00:48 52.71149 -116.08713 30347 ft 453 kts 48°
2026-05-04 00:49 52.72915 -116.04425 30096 ft 452 kts 48°
2026-05-04 00:49 52.74679 -116.00136 29815 ft 451 kts 48°
2026-05-04 00:49 52.76435 -115.95856 29541 ft 449 kts 48°
2026-05-04 00:49 52.78180 -115.91596 29263 ft 447 kts 48°
2026-05-04 00:50 52.79918 -115.87349 28988 ft 445 kts 48°
2026-05-04 00:50 52.81645 -115.83119 28714 ft 443 kts 47°
2026-05-04 00:50 52.83363 -115.78906 28445 ft 441 kts 47°
2026-05-04 00:50 52.85077 -115.74698 28177 ft 440 kts 47°
2026-05-04 00:51 52.86787 -115.70490 27920 ft 438 kts 47°
2026-05-04 00:51 52.88460 -115.66366 27660 ft 436 kts 47°
2026-05-04 00:51 52.90149 -115.62198 27408 ft 435 kts 47°
2026-05-04 00:51 52.91839 -115.58020 27147 ft 434 kts 47°
2026-05-04 00:52 52.93517 -115.53864 26892 ft 432 kts 47°
2026-05-04 00:52 52.95180 -115.49737 26643 ft 430 kts 47°
2026-05-04 00:52 52.96838 -115.45618 26394 ft 429 kts 47°
2026-05-04 00:52 52.98489 -115.41509 26146 ft 427 kts 47°
2026-05-04 00:53 53.00129 -115.37420 25906 ft 425 kts 47°
2026-05-04 00:53 53.01766 -115.33334 25588 ft 424 kts 47°
2026-05-04 00:53 53.03398 -115.29256 25086 ft 423 kts 47°
2026-05-04 00:53 53.05016 -115.25197 24592 ft 418 kts 47°
2026-05-04 00:54 53.06612 -115.21184 24105 ft 413 kts 47°
2026-05-04 00:54 53.08165 -115.17279 23632 ft 410 kts 47°
2026-05-04 00:54 53.09740 -115.13321 23075 ft 408 kts 46°
2026-05-04 00:54 53.11300 -115.09392 22518 ft 405 kts 46°
2026-05-04 00:55 53.12844 -115.05492 21968 ft 402 kts 47°
2026-05-04 00:55 53.14376 -115.01620 21428 ft 400 kts 47°
2026-05-04 00:55 53.15900 -114.97761 20896 ft 396 kts 47°
2026-05-04 00:55 53.17412 -114.93931 20377 ft 395 kts 47°
2026-05-04 00:56 53.18915 -114.90116 19863 ft 392 kts 47°
2026-05-04 00:56 53.20402 -114.86328 19362 ft 389 kts 47°
2026-05-04 00:56 53.21887 -114.82547 18866 ft 388 kts 47°
2026-05-04 00:56 53.23358 -114.78795 18378 ft 385 kts 47°
2026-05-04 00:57 53.24819 -114.75062 17834 ft 384 kts 47°
2026-05-04 00:57 53.26196 -114.71309 17340 ft 387 kts 54°
2026-05-04 00:57 53.27128 -114.67086 17300 ft 395 kts 67°
2026-05-04 00:57 53.27526 -114.62413 17275 ft 415 kts 79°
2026-05-04 00:58 53.27645 -114.57599 17041 ft 413 kts 80°
2026-05-04 00:58 53.27751 -114.52826 16784 ft 409 kts 80°
2026-05-04 00:58 53.27855 -114.48091 16387 ft 408 kts 80°
2026-05-04 00:58 53.27964 -114.43340 15798 ft 408 kts 80°
2026-05-04 00:59 53.28070 -114.38614 15211 ft 406 kts 81°
2026-05-04 00:59 53.28176 -114.33912 14627 ft 404 kts 81°
2026-05-04 00:59 53.28279 -114.29231 14027 ft 402 kts 81°
2026-05-04 00:59 53.28380 -114.24583 13423 ft 399 kts 81°
2026-05-04 01:00 53.28477 -114.20040 12855 ft 394 kts 82°
2026-05-04 01:00 53.28573 -114.15480 12296 ft 389 kts 82°
2026-05-04 01:00 53.28665 -114.10982 11727 ft 385 kts 82°
2026-05-04 01:00 53.28756 -114.06537 11166 ft 381 kts 83°
2026-05-04 01:01 53.28844 -114.02120 10624 ft 377 kts 83°
2026-05-04 01:01 53.28978 -113.97808 10410 ft 363 kts 81°
2026-05-04 01:01 53.29143 -113.93691 10259 ft 349 kts 80°
2026-05-04 01:01 53.29306 -113.89726 10129 ft 335 kts 80°
2026-05-04 01:02 53.29459 -113.85914 9998 ft 322 kts 79°
2026-05-04 01:02 53.29603 -113.82229 9767 ft 314 kts 80°
2026-05-04 01:02 53.29432 -113.78572 9360 ft 321 kts 102°
2026-05-04 01:02 53.28421 -113.75242 8955 ft 325 kts 126°
2026-05-04 01:03 53.26902 -113.72528 8707 ft 319 kts 136°
2026-05-04 01:03 53.25283 -113.70100 8591 ft 307 kts 137°
2026-05-04 01:03 53.23721 -113.67765 8479 ft 295 kts 136°
2026-05-04 01:03 53.22247 -113.65471 8369 ft 284 kts 135°
2026-05-04 01:04 53.20843 -113.63208 8179 ft 277 kts 133°
2026-05-04 01:04 53.19475 -113.60954 7885 ft 275 kts 133°
2026-05-04 01:04 53.18132 -113.58720 7534 ft 268 kts 132°
2026-05-04 01:04 53.16814 -113.56520 6891 ft 268 kts 132°
2026-05-04 01:05 53.15505 -113.54337 6376 ft 262 kts 132°
2026-05-04 01:05 53.14254 -113.52257 6203 ft 261 kts 131°
2026-05-04 01:05 53.12965 -113.50109 5999 ft 260 kts 131°
2026-05-04 01:05 53.11798 -113.47834 5779 ft 254 kts 112°
2026-05-04 01:06 53.11365 -113.45098 5587 ft 239 kts 79°
2026-05-04 01:06 53.11798 -113.42623 5500 ft 207 kts 46°
2026-05-04 01:06 53.12716 -113.41060 5498 ft 183 kts 30°
2026-05-04 01:06 53.13731 -113.39756 5503 ft 183 kts 30°
2026-05-04 01:07 53.14834 -113.39016 5500 ft 167 kts 351°
2026-05-04 01:07 53.15954 -113.39624 5504 ft 170 kts 335°
2026-05-04 01:07 53.17006 -113.40524 5393 ft 171 kts 332°
2026-05-04 01:07 53.18049 -113.41528 5168 ft 173 kts 330°
2026-05-04 01:08 53.19060 -113.42595 4928 ft 172 kts 329°
2026-05-04 01:08 53.20039 -113.43704 4699 ft 172 kts 327°
2026-05-04 01:08 53.20997 -113.44867 4477 ft 167 kts 326°
2026-05-04 01:08 53.21873 -113.45987 4271 ft 150 kts 325°
2026-05-04 01:09 53.22655 -113.47026 4057 ft 137 kts 324°
2026-05-04 01:09 53.23363 -113.47995 3882 ft 125 kts 323°
2026-05-04 01:09 53.24002 -113.48906 3718 ft 120 kts 324°
2026-05-04 01:09 53.24643 -113.49841 3564 ft 123 kts 323°
2026-05-04 01:10 53.25271 -113.50789 3413 ft 119 kts 322°
2026-05-04 01:10 53.25862 -113.51715 3218 ft 116 kts 322°
2026-05-04 01:10 53.26461 -113.52659 3045 ft 122 kts 320°
2026-05-04 01:10 53.27072 -113.53656 2863 ft 121 kts 320°
2026-05-04 01:11 53.27666 -113.54628 2699 ft 119 kts 318°
2026-05-04 01:11 53.28253 -113.55615 2494 ft 121 kts 318°
2026-05-04 01:11 53.28815 -113.56573 2405 ft 112 kts 320°
2026-05-04 01:11 53.29324 -113.57433 2365 ft 88 kts 324°
2026-05-04 01:12 53.29694 -113.58003 2358 ft 62 kts 315°
2026-05-04 01:12 53.29968 -113.58461 2350 ft 51 kts 317°
2026-05-04 01:12 53.30183 -113.58777 2345 ft 44 kts 332°
2026-05-04 01:12 53.30383 -113.58850 2342 ft 0 kts
2026-05-04 01:13 53.30406 -113.58849 2341 ft 8 kts
2026-05-04 01:14 53.30536 -113.58839 2339 ft 23 kts 20°
2026-05-04 01:14 53.30584 -113.58667 2338 ft 15 kts 107°
2026-05-04 01:14 53.30583 -113.58581 2339 ft 6 kts 86°
2026-05-04 01:14 53.30598 -113.58518 2339 ft 6 kts 60°
2026-05-04 01:15 53.30610 -113.58497 2339 ft 0 kts 45°
2026-05-04 01:15 53.30603 -113.58514 2339 ft 3 kts 53°
2026-05-04 01:15 53.30589 -113.58552 2339 ft 4 kts 63°
2026-05-04 01:15 53.30601 -113.58490 2339 ft 12 kts 71°
2026-05-04 01:16 53.30603 -113.58480 2339 ft 0 kts 70°